Data supplied by UK-AIR on 29/4/2023
All Data GMT hour ending 
Status: R =Ratified P=Provisional,P*=As supplied
,,Greenock A8 Roadside,,,,,,,,,,,,,,,,,,,,,,,
Date,time,"PM<sub>10</sub> particulate matter (Hourly measured)",status,unit,"Nitric oxide",status,unit,"Nitrogen dioxide",status,unit,"Nitrogen oxides as nitrogen dioxide",status,unit,"PM<sub>2.5</sub> particulate matter (Hourly measured)",status,unit
 
01-01-2022,01:00,7.850,R,ugm-3 (FIDAS),,,,,,,,,,5.519,R,ugm-3 (Ref.eq)
01-01-2022,02:00,10.725,R,ugm-3 (FIDAS),,,,,,,,,,6.557,R,ugm-3 (Ref.eq)
01-01-2022,03:00,6.300,R,ugm-3 (FIDAS),,,,,,,,,,4.599,R,ugm-3 (Ref.eq)
01-01-2022,04:00,4.075,R,ugm-3 (FIDAS),,,,,,,,,,2.571,R,ugm-3 (Ref.eq)
01-01-2022,05:00,6.675,R,ugm-3 (FIDAS),,,,,,,,,,4.175,R,ugm-3 (Ref.eq)
01-01-2022,06:00,20.525,R,ugm-3 (FIDAS),,,,,,,,,,11.415,R,ugm-3 (Ref.eq)
01-01-2022,07:00,25.150,R,ugm-3 (FIDAS),,,,,,,,,,13.962,R,ugm-3 (Ref.eq)
01-01-2022,08:00,27.325,R,ugm-3 (FIDAS),,,,,,,,,,15.684,R,ugm-3 (Ref.eq)
01-01-2022,09:00,29.750,R,ugm-3 (FIDAS),,,,,,,,,,17.760,R,ugm-3 (Ref.eq)
01-01-2022,10:00,29.550,R,ugm-3 (FIDAS),,,,,,,,,,17.760,R,ugm-3 (Ref.eq)
01-01-2022,11:00,31.450,R,ugm-3 (FIDAS),,,,,,,,,,18.231,R,ugm-3 (Ref.eq)
01-01-2022,12:00,20.800,R,ugm-3 (FIDAS),,,,,,,,,,11.651,R,ugm-3 (Ref.eq)
01-01-2022,13:00,19.450,R,ugm-3 (FIDAS),,,,,,,,,,10.755,R,ugm-3 (Ref.eq)
01-01-2022,14:00,21.850,R,ugm-3 (FIDAS),,,,,,,,,,12.264,R,ugm-3 (Ref.eq)
01-01-2022,15:00,23.300,R,ugm-3 (FIDAS),,,,,,,,,,13.113,R,ugm-3 (Ref.eq)
01-01-2022,16:00,22.175,R,ugm-3 (FIDAS),,,,,,,,,,12.995,R,ugm-3 (Ref.eq)
01-01-2022,17:00,19.350,R,ugm-3 (FIDAS),,,,,,,,,,12.594,R,ugm-3 (Ref.eq)
01-01-2022,18:00,19.375,R,ugm-3 (FIDAS),,,,,,,,,,11.934,R,ugm-3 (Ref.eq)
01-01-2022,19:00,7.975,R,ugm-3 (FIDAS),,,,,,,,,,4.410,R,ugm-3 (Ref.eq)
01-01-2022,20:00,6.475,R,ugm-3 (FIDAS),,,,,,,,,,3.585,R,ugm-3 (Ref.eq)
01-01-2022,21:00,6.800,R,ugm-3 (FIDAS),,,,,,,,,,3.467,R,ugm-3 (Ref.eq)
01-01-2022,22:00,10.500,R,ugm-3 (FIDAS),,,,,,,,,,5.967,R,ugm-3 (Ref.eq)
01-01-2022,23:00,8.900,R,ugm-3 (FIDAS),,,,,,,,,,4.764,R,ugm-3 (Ref.eq)
01-01-2022,24:00,10.975,R,ugm-3 (FIDAS),,,,,,,,,,5.943,R,ugm-3 (Ref.eq)
02-01-2022,01:00,13.475,R,ugm-3 (FIDAS),,,,,,,,,,6.698,R,ugm-3 (Ref.eq)
02-01-2022,02:00,14.050,R,ugm-3 (FIDAS),,,,,,,,,,7.123,R,ugm-3 (Ref.eq)
02-01-2022,03:00,13.250,R,ugm-3 (FIDAS),,,,,,,,,,6.863,R,ugm-3 (Ref.eq)
02-01-2022,04:00,13.275,R,ugm-3 (FIDAS),,,,,,,,,,6.910,R,ugm-3 (Ref.eq)
02-01-2022,05:00,13.725,R,ugm-3 (FIDAS),,,,,,,,,,7.453,R,ugm-3 (Ref.eq)
02-01-2022,06:00,13.450,R,ugm-3 (FIDAS),,,,,,,,,,7.665,R,ugm-3 (Ref.eq)
02-01-2022,07:00,13.075,R,ugm-3 (FIDAS),,,,,,,,,,7.311,R,ugm-3 (Ref.eq)
02-01-2022,08:00,13.225,R,ugm-3 (FIDAS),,,,,,,,,,7.429,R,ugm-3 (Ref.eq)
02-01-2022,09:00,12.850,R,ugm-3 (FIDAS),,,,,,,,,,6.816,R,ugm-3 (Ref.eq)
02-01-2022,10:00,12.150,R,ugm-3 (FIDAS),,,,,,,,,,6.675,R,ugm-3 (Ref.eq)
02-01-2022,11:00,13.450,R,ugm-3 (FIDAS),,,,,,,,,,6.675,R,ugm-3 (Ref.eq)
02-01-2022,12:00,13.475,R,ugm-3 (FIDAS),,,,,,,,,,6.675,R,ugm-3 (Ref.eq)
02-01-2022,13:00,13.325,R,ugm-3 (FIDAS),,,,,,,,,,6.675,R,ugm-3 (Ref.eq)
02-01-2022,14:00,13.575,R,ugm-3 (FIDAS),,,,,,,,,,7.052,R,ugm-3 (Ref.eq)
02-01-2022,15:00,13.425,R,ugm-3 (FIDAS),,,,,,,,,,6.863,R,ugm-3 (Ref.eq)
02-01-2022,16:00,11.200,R,ugm-3 (FIDAS),,,,,,,,,,6.203,R,ugm-3 (Ref.eq)
02-01-2022,17:00,10.500,R,ugm-3 (FIDAS),,,,,,,,,,5.778,R,ugm-3 (Ref.eq)
02-01-2022,18:00,9.100,R,ugm-3 (FIDAS),,,,,,,,,,5.142,R,ugm-3 (Ref.eq)
02-01-2022,19:00,8.825,R,ugm-3 (FIDAS),,,,,,,,,,5.071,R,ugm-3 (Ref.eq)
02-01-2022,20:00,8.250,R,ugm-3 (FIDAS),,,,,,,,,,4.788,R,ugm-3 (Ref.eq)
02-01-2022,21:00,10.500,R,ugm-3 (FIDAS),,,,,,,,,,6.250,R,ugm-3 (Ref.eq)
02-01-2022,22:00,11.400,R,ugm-3 (FIDAS),,,,,,,,,,6.439,R,ugm-3 (Ref.eq)
02-01-2022,23:00,7.450,R,ugm-3 (FIDAS),,,,,,,,,,4.363,R,ugm-3 (Ref.eq)
02-01-2022,24:00,6.125,R,ugm-3 (FIDAS),,,,,,,,,,3.679,R,ugm-3 (Ref.eq)
03-01-2022,01:00,6.925,R,ugm-3 (FIDAS),,,,,,,,,,3.844,R,ugm-3 (Ref.eq)
03-01-2022,02:00,8.075,R,ugm-3 (FIDAS),,,,,,,,,,4.410,R,ugm-3 (Ref.eq)
03-01-2022,03:00,6.650,R,ugm-3 (FIDAS),,,,,,,,,,3.797,R,ugm-3 (Ref.eq)
03-01-2022,04:00,5.875,R,ugm-3 (FIDAS),,,,,,,,,,3.514,R,ugm-3 (Ref.eq)
03-01-2022,05:00,7.975,R,ugm-3 (FIDAS),,,,,,,,,,4.269,R,ugm-3 (Ref.eq)
03-01-2022,06:00,8.250,R,ugm-3 (FIDAS),,,,,,,,,,4.410,R,ugm-3 (Ref.eq)
03-01-2022,07:00,9.225,R,ugm-3 (FIDAS),,,,,,,,,,5.024,R,ugm-3 (Ref.eq)
03-01-2022,08:00,8.925,R,ugm-3 (FIDAS),,,,,,,,,,4.481,R,ugm-3 (Ref.eq)
03-01-2022,09:00,2.875,R,ugm-3 (FIDAS),,,,,,,,,,1.651,R,ugm-3 (Ref.eq)
03-01-2022,10:00,2.500,R,ugm-3 (FIDAS),,,,,,,,,,1.321,R,ugm-3 (Ref.eq)
03-01-2022,11:00,3.275,R,ugm-3 (FIDAS),,,,,,,,,,1.769,R,ugm-3 (Ref.eq)
03-01-2022,12:00,2.750,R,ugm-3 (FIDAS),,,,,,,,,,1.274,R,ugm-3 (Ref.eq)
03-01-2022,13:00,2.375,R,ugm-3 (FIDAS),,,,,,,,,,1.203,R,ugm-3 (Ref.eq)
03-01-2022,14:00,3.000,R,ugm-3 (FIDAS),,,,,,,,,,1.981,R,ugm-3 (Ref.eq)
03-01-2022,15:00,0.775,R,ugm-3 (FIDAS),,,,,,,,,,0.330,R,ugm-3 (Ref.eq)
03-01-2022,16:00,3.700,R,ugm-3 (FIDAS),,,,,,,,,,2.406,R,ugm-3 (Ref.eq)
03-01-2022,17:00,6.500,R,ugm-3 (FIDAS),,,,,,,,,,3.090,R,ugm-3 (Ref.eq)
03-01-2022,18:00,7.725,R,ugm-3 (FIDAS),,,,,,,,,,4.646,R,ugm-3 (Ref.eq)
03-01-2022,19:00,6.875,R,ugm-3 (FIDAS),,,,,,,,,,2.995,R,ugm-3 (Ref.eq)
03-01-2022,20:00,5.325,R,ugm-3 (FIDAS),,,,,,,,,,2.830,R,ugm-3 (Ref.eq)
03-01-2022,21:00,6.650,R,ugm-3 (FIDAS),,,,,,,,,,2.972,R,ugm-3 (Ref.eq)
03-01-2022,22:00,8.425,R,ugm-3 (FIDAS),,,,,,,,,,3.750,R,ugm-3 (Ref.eq)
03-01-2022,23:00,6.875,R,ugm-3 (FIDAS),,,,,,,,,,3.255,R,ugm-3 (Ref.eq)
03-01-2022,24:00,6.025,R,ugm-3 (FIDAS),,,,,,,,,,3.066,R,ugm-3 (Ref.eq)
04-01-2022,01:00,7.425,R,ugm-3 (FIDAS),,,,,,,,,,3.349,R,ugm-3 (Ref.eq)
04-01-2022,02:00,8.500,R,ugm-3 (FIDAS),,,,,,,,,,4.127,R,ugm-3 (Ref.eq)
04-01-2022,03:00,7.425,R,ugm-3 (FIDAS),,,,,,,,,,4.009,R,ugm-3 (Ref.eq)
04-01-2022,04:00,8.100,R,ugm-3 (FIDAS),,,,,,,,,,3.939,R,ugm-3 (Ref.eq)
04-01-2022,05:00,10.250,R,ugm-3 (FIDAS),,,,,,,,,,5.142,R,ugm-3 (Ref.eq)
04-01-2022,06:00,9.700,R,ugm-3 (FIDAS),,,,,,,,,,5.613,R,ugm-3 (Ref.eq)
04-01-2022,07:00,10.250,R,ugm-3 (FIDAS),,,,,,,,,,5.684,R,ugm-3 (Ref.eq)
04-01-2022,08:00,11.425,R,ugm-3 (FIDAS),,,,,,,,,,6.274,R,ugm-3 (Ref.eq)
04-01-2022,09:00,10.675,R,ugm-3 (FIDAS),,,,,,,,,,5.755,R,ugm-3 (Ref.eq)
04-01-2022,10:00,8.550,R,ugm-3 (FIDAS),,,,,,,,,,5.000,R,ugm-3 (Ref.eq)
04-01-2022,11:00,9.300,R,ugm-3 (FIDAS),,,,,,,,,,4.976,R,ugm-3 (Ref.eq)
04-01-2022,12:00,9.275,R,ugm-3 (FIDAS),,,,,,,,,,5.259,R,ugm-3 (Ref.eq)
04-01-2022,13:00,10.775,R,ugm-3 (FIDAS),,,,,,,,,,5.708,R,ugm-3 (Ref.eq)
04-01-2022,14:00,11.450,R,ugm-3 (FIDAS),,,,,,,,,,5.849,R,ugm-3 (Ref.eq)
04-01-2022,15:00,13.750,R,ugm-3 (FIDAS),,,,,,,,,,5.778,R,ugm-3 (Ref.eq)
04-01-2022,16:00,13.150,R,ugm-3 (FIDAS),,,,,,,,,,6.226,R,ugm-3 (Ref.eq)
04-01-2022,17:00,14.250,R,ugm-3 (FIDAS),,,,,,,,,,6.533,R,ugm-3 (Ref.eq)
04-01-2022,18:00,11.850,R,ugm-3 (FIDAS),,,,,,,,,,6.462,R,ugm-3 (Ref.eq)
04-01-2022,19:00,9.775,R,ugm-3 (FIDAS),,,,,,,,,,5.472,R,ugm-3 (Ref.eq)
04-01-2022,20:00,8.675,R,ugm-3 (FIDAS),,,,,,,,,,5.165,R,ugm-3 (Ref.eq)
04-01-2022,21:00,8.225,R,ugm-3 (FIDAS),,,,,,,,,,4.835,R,ugm-3 (Ref.eq)
04-01-2022,22:00,7.350,R,ugm-3 (FIDAS),,,,,,,,,,4.316,R,ugm-3 (Ref.eq)
04-01-2022,23:00,6.250,R,ugm-3 (FIDAS),,,,,,,,,,3.844,R,ugm-3 (Ref.eq)
04-01-2022,24:00,8.250,R,ugm-3 (FIDAS),,,,,,,,,,4.599,R,ugm-3 (Ref.eq)
05-01-2022,01:00,7.625,R,ugm-3 (FIDAS),,,,,,,,,,4.410,R,ugm-3 (Ref.eq)
05-01-2022,02:00,8.200,R,ugm-3 (FIDAS),,,,,,,,,,4.646,R,ugm-3 (Ref.eq)
05-01-2022,03:00,7.475,R,ugm-3 (FIDAS),,,,,,,,,,4.245,R,ugm-3 (Ref.eq)
05-01-2022,04:00,6.975,R,ugm-3 (FIDAS),,,,,,,,,,3.962,R,ugm-3 (Ref.eq)
05-01-2022,05:00,6.450,R,ugm-3 (FIDAS),,,,,,,,,,3.679,R,ugm-3 (Ref.eq)
05-01-2022,06:00,6.875,R,ugm-3 (FIDAS),,,,,,,,,,3.726,R,ugm-3 (Ref.eq)
05-01-2022,07:00,6.300,R,ugm-3 (FIDAS),,,,,,,,,,3.656,R,ugm-3 (Ref.eq)
05-01-2022,08:00,9.650,R,ugm-3 (FIDAS),,,,,,,,,,5.519,R,ugm-3 (Ref.eq)
05-01-2022,09:00,10.425,R,ugm-3 (FIDAS),,,,,,,,,,5.637,R,ugm-3 (Ref.eq)
05-01-2022,10:00,12.250,R,ugm-3 (FIDAS),,,,,,,,,,6.627,R,ugm-3 (Ref.eq)
05-01-2022,11:00,14.225,R,ugm-3 (FIDAS),,,,,,,,,,7.123,R,ugm-3 (Ref.eq)
05-01-2022,12:00,15.150,R,ugm-3 (FIDAS),,,,,,,,,,7.406,R,ugm-3 (Ref.eq)
05-01-2022,13:00,13.200,R,ugm-3 (FIDAS),,,,,,,,,,6.203,R,ugm-3 (Ref.eq)
05-01-2022,14:00,19.100,R,ugm-3 (FIDAS),,,,,,,,,,6.604,R,ugm-3 (Ref.eq)
05-01-2022,15:00,43.825,R,ugm-3 (FIDAS),,,,,,,,,,8.090,R,ugm-3 (Ref.eq)
05-01-2022,16:00,44.525,R,ugm-3 (FIDAS),,,,,,,,,,7.689,R,ugm-3 (Ref.eq)
05-01-2022,17:00,53.225,R,ugm-3 (FIDAS),,,,,,,,,,8.538,R,ugm-3 (Ref.eq)
05-01-2022,18:00,26.325,R,ugm-3 (FIDAS),,,,,,,,,,5.849,R,ugm-3 (Ref.eq)
05-01-2022,19:00,11.900,R,ugm-3 (FIDAS),,,,,,,,,,5.425,R,ugm-3 (Ref.eq)
05-01-2022,20:00,11.500,R,ugm-3 (FIDAS),,,,,,,,,,7.382,R,ugm-3 (Ref.eq)
05-01-2022,21:00,9.300,R,ugm-3 (FIDAS),,,,,,,,,,5.566,R,ugm-3 (Ref.eq)
05-01-2022,22:00,10.200,R,ugm-3 (FIDAS),,,,,,,,,,6.627,R,ugm-3 (Ref.eq)
05-01-2022,23:00,10.575,R,ugm-3 (FIDAS),,,,,,,,,,7.028,R,ugm-3 (Ref.eq)
05-01-2022,24:00,8.150,R,ugm-3 (FIDAS),,,,,,,,,,4.835,R,ugm-3 (Ref.eq)
06-01-2022,01:00,6.875,R,ugm-3 (FIDAS),,,,,,,,,,3.019,R,ugm-3 (Ref.eq)
06-01-2022,02:00,4.650,R,ugm-3 (FIDAS),,,,,,,,,,2.665,R,ugm-3 (Ref.eq)
06-01-2022,03:00,4.875,R,ugm-3 (FIDAS),,,,,,,,,,2.972,R,ugm-3 (Ref.eq)
06-01-2022,04:00,5.300,R,ugm-3 (FIDAS),,,,,,,,,,3.373,R,ugm-3 (Ref.eq)
06-01-2022,05:00,6.550,R,ugm-3 (FIDAS),,,,,,,,,,3.609,R,ugm-3 (Ref.eq)
06-01-2022,06:00,5.850,R,ugm-3 (FIDAS),,,,,,,,,,3.821,R,ugm-3 (Ref.eq)
06-01-2022,07:00,6.150,R,ugm-3 (FIDAS),,,,,,,,,,3.467,R,ugm-3 (Ref.eq)
06-01-2022,08:00,9.525,R,ugm-3 (FIDAS),,,,,,,,,,4.009,R,ugm-3 (Ref.eq)
06-01-2022,09:00,47.550,R,ugm-3 (FIDAS),,,,,,,,,,12.476,R,ugm-3 (Ref.eq)
06-01-2022,10:00,15.300,R,ugm-3 (FIDAS),,,,,,,,,,5.047,R,ugm-3 (Ref.eq)
06-01-2022,11:00,7.200,R,ugm-3 (FIDAS),,,,,,,,,,2.830,R,ugm-3 (Ref.eq)
06-01-2022,12:00,5.925,R,ugm-3 (FIDAS),,,,,,,,,,2.689,R,ugm-3 (Ref.eq)
06-01-2022,13:00,8.600,R,ugm-3 (FIDAS),,,,,,,,,,3.868,R,ugm-3 (Ref.eq)
06-01-2022,14:00,17.525,R,ugm-3 (FIDAS),,,,,,,,,,6.769,R,ugm-3 (Ref.eq)
06-01-2022,15:00,12.500,R,ugm-3 (FIDAS),,,,,,,,,,4.906,R,ugm-3 (Ref.eq)
06-01-2022,16:00,14.375,R,ugm-3 (FIDAS),,,,,,,,,,4.835,R,ugm-3 (Ref.eq)
06-01-2022,17:00,8.850,R,ugm-3 (FIDAS),,,,,,,,,,3.066,R,ugm-3 (Ref.eq)
06-01-2022,18:00,4.125,R,ugm-3 (FIDAS),,,,,,,,,,1.745,R,ugm-3 (Ref.eq)
06-01-2022,19:00,2.825,R,ugm-3 (FIDAS),,,,,,,,,,1.509,R,ugm-3 (Ref.eq)
06-01-2022,20:00,2.550,R,ugm-3 (FIDAS),,,,,,,,,,1.274,R,ugm-3 (Ref.eq)
06-01-2022,21:00,4.750,R,ugm-3 (FIDAS),,,,,,,,,,2.193,R,ugm-3 (Ref.eq)
06-01-2022,22:00,6.925,R,ugm-3 (FIDAS),,,,,,,,,,3.019,R,ugm-3 (Ref.eq)
06-01-2022,23:00,3.025,R,ugm-3 (FIDAS),,,,,,,,,,1.344,R,ugm-3 (Ref.eq)
06-01-2022,24:00,3.075,R,ugm-3 (FIDAS),,,,,,,,,,1.179,R,ugm-3 (Ref.eq)
07-01-2022,01:00,3.850,R,ugm-3 (FIDAS),,,,,,,,,,1.226,R,ugm-3 (Ref.eq)
07-01-2022,02:00,2.375,R,ugm-3 (FIDAS),,,,,,,,,,1.061,R,ugm-3 (Ref.eq)
07-01-2022,03:00,1.800,R,ugm-3 (FIDAS),,,,,,,,,,0.920,R,ugm-3 (Ref.eq)
07-01-2022,04:00,2.075,R,ugm-3 (FIDAS),,,,,,,,,,0.991,R,ugm-3 (Ref.eq)
07-01-2022,05:00,5.225,R,ugm-3 (FIDAS),,,,,,,,,,1.745,R,ugm-3 (Ref.eq)
07-01-2022,06:00,2.400,R,ugm-3 (FIDAS),,,,,,,,,,0.778,R,ugm-3 (Ref.eq)
07-01-2022,07:00,3.000,R,ugm-3 (FIDAS),,,,,,,,,,1.085,R,ugm-3 (Ref.eq)
07-01-2022,08:00,3.875,R,ugm-3 (FIDAS),,,,,,,,,,1.415,R,ugm-3 (Ref.eq)
07-01-2022,09:00,9.750,R,ugm-3 (FIDAS),,,,,,,,,,3.443,R,ugm-3 (Ref.eq)
07-01-2022,10:00,5.675,R,ugm-3 (FIDAS),,,,,,,,,,1.792,R,ugm-3 (Ref.eq)
07-01-2022,11:00,4.375,R,ugm-3 (FIDAS),,,,,,,,,,2.335,R,ugm-3 (Ref.eq)
07-01-2022,12:00,4.200,R,ugm-3 (FIDAS),,,,,,,,,,1.604,R,ugm-3 (Ref.eq)
07-01-2022,13:00,7.450,R,ugm-3 (FIDAS),,,,,,,,,,2.123,R,ugm-3 (Ref.eq)
07-01-2022,14:00,14.150,R,ugm-3 (FIDAS),,,,,,,,,,3.868,R,ugm-3 (Ref.eq)
07-01-2022,15:00,9.100,R,ugm-3 (FIDAS),,,,,,,,,,2.712,R,ugm-3 (Ref.eq)
07-01-2022,16:00,9.500,R,ugm-3 (FIDAS),,,,,,,,,,3.302,R,ugm-3 (Ref.eq)
07-01-2022,17:00,11.400,R,ugm-3 (FIDAS),,,,,,,,,,5.354,R,ugm-3 (Ref.eq)
07-01-2022,18:00,7.675,R,ugm-3 (FIDAS),,,,,,,,,,3.278,R,ugm-3 (Ref.eq)
07-01-2022,19:00,5.850,R,ugm-3 (FIDAS),,,,,,,,,,2.500,R,ugm-3 (Ref.eq)
07-01-2022,20:00,3.800,R,ugm-3 (FIDAS),,,,,,,,,,1.840,R,ugm-3 (Ref.eq)
07-01-2022,21:00,4.075,R,ugm-3 (FIDAS),,,,,,,,,,1.840,R,ugm-3 (Ref.eq)
07-01-2022,22:00,5.375,R,ugm-3 (FIDAS),,,,,,,,,,2.453,R,ugm-3 (Ref.eq)
07-01-2022,23:00,6.575,R,ugm-3 (FIDAS),,,,,,,,,,3.160,R,ugm-3 (Ref.eq)
07-01-2022,24:00,8.800,R,ugm-3 (FIDAS),,,,,,,,,,4.151,R,ugm-3 (Ref.eq)
08-01-2022,01:00,10.500,R,ugm-3 (FIDAS),,,,,,,,,,4.882,R,ugm-3 (Ref.eq)
08-01-2022,02:00,6.550,R,ugm-3 (FIDAS),,,,,,,,,,3.915,R,ugm-3 (Ref.eq)
08-01-2022,03:00,6.225,R,ugm-3 (FIDAS),,,,,,,,,,4.764,R,ugm-3 (Ref.eq)
08-01-2022,04:00,3.775,R,ugm-3 (FIDAS),,,,,,,,,,2.901,R,ugm-3 (Ref.eq)
08-01-2022,05:00,1.175,R,ugm-3 (FIDAS),,,,,,,,,,0.849,R,ugm-3 (Ref.eq)
08-01-2022,06:00,0.775,R,ugm-3 (FIDAS),,,,,,,,,,0.495,R,ugm-3 (Ref.eq)
08-01-2022,07:00,1.550,R,ugm-3 (FIDAS),,,,,,,,,,0.991,R,ugm-3 (Ref.eq)
08-01-2022,08:00,7.600,R,ugm-3 (FIDAS),,,,,,,,,,4.505,R,ugm-3 (Ref.eq)
08-01-2022,09:00,27.225,R,ugm-3 (FIDAS),,,,,,,,,,14.293,R,ugm-3 (Ref.eq)
08-01-2022,10:00,31.150,R,ugm-3 (FIDAS),,,,,,,,,,16.226,R,ugm-3 (Ref.eq)
08-01-2022,11:00,19.625,R,ugm-3 (FIDAS),,,,,,,,,,10.283,R,ugm-3 (Ref.eq)
08-01-2022,12:00,18.150,R,ugm-3 (FIDAS),,,,,,,,,,8.750,R,ugm-3 (Ref.eq)
08-01-2022,13:00,14.725,R,ugm-3 (FIDAS),,,,,,,,,,7.476,R,ugm-3 (Ref.eq)
08-01-2022,14:00,12.975,R,ugm-3 (FIDAS),,,,,,,,,,5.755,R,ugm-3 (Ref.eq)
08-01-2022,15:00,13.150,R,ugm-3 (FIDAS),,,,,,,,,,5.236,R,ugm-3 (Ref.eq)
08-01-2022,16:00,13.050,R,ugm-3 (FIDAS),,,,,,,,,,5.660,R,ugm-3 (Ref.eq)
08-01-2022,17:00,12.675,R,ugm-3 (FIDAS),,,,,,,,,,5.519,R,ugm-3 (Ref.eq)
08-01-2022,18:00,16.525,R,ugm-3 (FIDAS),,,,,,,,,,5.330,R,ugm-3 (Ref.eq)
08-01-2022,19:00,16.900,R,ugm-3 (FIDAS),,,,,,,,,,4.623,R,ugm-3 (Ref.eq)
08-01-2022,20:00,10.000,R,ugm-3 (FIDAS),,,,,,,,,,3.774,R,ugm-3 (Ref.eq)
08-01-2022,21:00,9.175,R,ugm-3 (FIDAS),,,,,,,,,,3.726,R,ugm-3 (Ref.eq)
08-01-2022,22:00,10.075,R,ugm-3 (FIDAS),,,,,,,,,,4.552,R,ugm-3 (Ref.eq)
08-01-2022,23:00,5.025,R,ugm-3 (FIDAS),,,,,,,,,,2.594,R,ugm-3 (Ref.eq)
08-01-2022,24:00,3.975,R,ugm-3 (FIDAS),,,,,,,,,,1.934,R,ugm-3 (Ref.eq)
09-01-2022,01:00,6.450,R,ugm-3 (FIDAS),,,,,,,,,,2.901,R,ugm-3 (Ref.eq)
09-01-2022,02:00,5.800,R,ugm-3 (FIDAS),,,,,,,,,,2.877,R,ugm-3 (Ref.eq)
09-01-2022,03:00,7.800,R,ugm-3 (FIDAS),,,,,,,,,,4.009,R,ugm-3 (Ref.eq)
09-01-2022,04:00,8.925,R,ugm-3 (FIDAS),,,,,,,,,,4.269,R,ugm-3 (Ref.eq)
09-01-2022,05:00,5.025,R,ugm-3 (FIDAS),,,,,,,,,,2.524,R,ugm-3 (Ref.eq)
09-01-2022,06:00,4.800,R,ugm-3 (FIDAS),,,,,,,,,,2.359,R,ugm-3 (Ref.eq)
09-01-2022,07:00,3.300,R,ugm-3 (FIDAS),,,,,,,,,,1.462,R,ugm-3 (Ref.eq)
09-01-2022,08:00,5.625,R,ugm-3 (FIDAS),,,,,,,,,,2.288,R,ugm-3 (Ref.eq)
09-01-2022,09:00,4.175,R,ugm-3 (FIDAS),,,,,,,,,,2.217,R,ugm-3 (Ref.eq)
09-01-2022,10:00,4.125,R,ugm-3 (FIDAS),,,,,,,,,,2.217,R,ugm-3 (Ref.eq)
09-01-2022,11:00,2.875,R,ugm-3 (FIDAS),,,,,,,,,,1.439,R,ugm-3 (Ref.eq)
09-01-2022,12:00,3.925,R,ugm-3 (FIDAS),,,,,,,,,,1.745,R,ugm-3 (Ref.eq)
09-01-2022,13:00,5.450,R,ugm-3 (FIDAS),,,,,,,,,,2.854,R,ugm-3 (Ref.eq)
09-01-2022,14:00,9.925,R,ugm-3 (FIDAS),,,,,,,,,,4.505,R,ugm-3 (Ref.eq)
09-01-2022,15:00,7.900,R,ugm-3 (FIDAS),,,,,,,,,,3.962,R,ugm-3 (Ref.eq)
09-01-2022,16:00,9.975,R,ugm-3 (FIDAS),,,,,,,,,,4.387,R,ugm-3 (Ref.eq)
09-01-2022,17:00,20.850,R,ugm-3 (FIDAS),,,,,,,,,,5.590,R,ugm-3 (Ref.eq)
09-01-2022,18:00,20.650,R,ugm-3 (FIDAS),,,,,,,,,,7.335,R,ugm-3 (Ref.eq)
09-01-2022,19:00,18.125,R,ugm-3 (FIDAS),,,,,,,,,,9.175,R,ugm-3 (Ref.eq)
09-01-2022,20:00,16.325,R,ugm-3 (FIDAS),,,,,,,,,,9.410,R,ugm-3 (Ref.eq)
09-01-2022,21:00,17.775,R,ugm-3 (FIDAS),,,,,,,,,,10.189,R,ugm-3 (Ref.eq)
09-01-2022,22:00,16.300,R,ugm-3 (FIDAS),,,,,,,,,,9.127,R,ugm-3 (Ref.eq)
09-01-2022,23:00,13.575,R,ugm-3 (FIDAS),,,,,,,,,,9.198,R,ugm-3 (Ref.eq)
09-01-2022,24:00,11.450,R,ugm-3 (FIDAS),,,,,,,,,,8.278,R,ugm-3 (Ref.eq)
10-01-2022,01:00,13.625,R,ugm-3 (FIDAS),,,,,,,,,,9.859,R,ugm-3 (Ref.eq)
10-01-2022,02:00,15.925,R,ugm-3 (FIDAS),,,,,,,,,,12.689,R,ugm-3 (Ref.eq)
10-01-2022,03:00,16.650,R,ugm-3 (FIDAS),,,,,,,,,,12.335,R,ugm-3 (Ref.eq)
10-01-2022,04:00,22.175,R,ugm-3 (FIDAS),,,,,,,,,,15.849,R,ugm-3 (Ref.eq)
10-01-2022,05:00,18.900,R,ugm-3 (FIDAS),,,,,,,,,,12.689,R,ugm-3 (Ref.eq)
10-01-2022,06:00,15.450,R,ugm-3 (FIDAS),,,,,,,,,,10.967,R,ugm-3 (Ref.eq)
10-01-2022,07:00,19.200,R,ugm-3 (FIDAS),,,,,,,,,,12.005,R,ugm-3 (Ref.eq)
10-01-2022,08:00,23.600,R,ugm-3 (FIDAS),,,,,,,,,,12.217,R,ugm-3 (Ref.eq)
10-01-2022,09:00,25.925,R,ugm-3 (FIDAS),,,,,,,,,,13.043,R,ugm-3 (Ref.eq)
10-01-2022,10:00,25.900,R,ugm-3 (FIDAS),,,,,,,,,,13.255,R,ugm-3 (Ref.eq)
10-01-2022,11:00,22.200,R,ugm-3 (FIDAS),,,,,,,,,,10.873,R,ugm-3 (Ref.eq)
10-01-2022,12:00,15.650,R,ugm-3 (FIDAS),,,,,,,,,,7.193,R,ugm-3 (Ref.eq)
10-01-2022,13:00,5.400,R,ugm-3 (FIDAS),,,,,,,,,,1.439,R,ugm-3 (Ref.eq)
10-01-2022,14:00,4.450,R,ugm-3 (FIDAS),,,,,,,,,,1.675,R,ugm-3 (Ref.eq)
10-01-2022,15:00,3.725,R,ugm-3 (FIDAS),,,,,,,,,,1.627,R,ugm-3 (Ref.eq)
10-01-2022,16:00,5.250,R,ugm-3 (FIDAS),,,,,,,,,,2.665,R,ugm-3 (Ref.eq)
10-01-2022,17:00,6.975,R,ugm-3 (FIDAS),,,,,,,,,,3.609,R,ugm-3 (Ref.eq)
10-01-2022,18:00,4.025,R,ugm-3 (FIDAS),,,,,,,,,,2.028,R,ugm-3 (Ref.eq)
10-01-2022,19:00,4.150,R,ugm-3 (FIDAS),,,,,,,,,,2.335,R,ugm-3 (Ref.eq)
10-01-2022,20:00,7.525,R,ugm-3 (FIDAS),,,,,,,,,,3.892,R,ugm-3 (Ref.eq)
10-01-2022,21:00,13.250,R,ugm-3 (FIDAS),,,,,,,,,,6.533,R,ugm-3 (Ref.eq)
10-01-2022,22:00,17.950,R,ugm-3 (FIDAS),,,,,,,,,,8.066,R,ugm-3 (Ref.eq)
10-01-2022,23:00,17.800,R,ugm-3 (FIDAS),,,,,,,,,,8.396,R,ugm-3 (Ref.eq)
10-01-2022,24:00,17.250,R,ugm-3 (FIDAS),,,,,,,,,,7.972,R,ugm-3 (Ref.eq)
11-01-2022,01:00,16.975,R,ugm-3 (FIDAS),,,,,,,,,,7.783,R,ugm-3 (Ref.eq)
11-01-2022,02:00,15.125,R,ugm-3 (FIDAS),,,,,,,,,,7.146,R,ugm-3 (Ref.eq)
11-01-2022,03:00,12.500,R,ugm-3 (FIDAS),,,,,,,,,,6.274,R,ugm-3 (Ref.eq)
11-01-2022,04:00,13.725,R,ugm-3 (FIDAS),,,,,,,,,,6.509,R,ugm-3 (Ref.eq)
11-01-2022,05:00,14.400,R,ugm-3 (FIDAS),,,,,,,,,,6.887,R,ugm-3 (Ref.eq)
11-01-2022,06:00,16.600,R,ugm-3 (FIDAS),,,,,,,,,,7.807,R,ugm-3 (Ref.eq)
11-01-2022,07:00,20.475,R,ugm-3 (FIDAS),,,,,,,,,,8.278,R,ugm-3 (Ref.eq)
11-01-2022,08:00,23.325,R,ugm-3 (FIDAS),,,,,,,,,,8.703,R,ugm-3 (Ref.eq)
11-01-2022,09:00,21.725,R,ugm-3 (FIDAS),,,,,,,,,,8.326,R,ugm-3 (Ref.eq)
11-01-2022,10:00,19.500,R,ugm-3 (FIDAS),,,,,,,,,,8.160,R,ugm-3 (Ref.eq)
11-01-2022,11:00,17.525,R,ugm-3 (FIDAS),,,,,,,,,,7.665,R,ugm-3 (Ref.eq)
11-01-2022,12:00,,,,,,,,,,,,,,,
11-01-2022,13:00,14.650,R,ugm-3 (FIDAS),,,,,,,,,,7.052,R,ugm-3 (Ref.eq)
11-01-2022,14:00,12.975,R,ugm-3 (FIDAS),,,,,,,,,,6.415,R,ugm-3 (Ref.eq)
11-01-2022,15:00,13.900,R,ugm-3 (FIDAS),,,,,,,,,,6.651,R,ugm-3 (Ref.eq)
11-01-2022,16:00,15.500,R,ugm-3 (FIDAS),,,,,,,,,,6.981,R,ugm-3 (Ref.eq)
11-01-2022,17:00,14.300,R,ugm-3 (FIDAS),,,,,,,,,,7.005,R,ugm-3 (Ref.eq)
11-01-2022,18:00,13.700,R,ugm-3 (FIDAS),,,,,,,,,,7.076,R,ugm-3 (Ref.eq)
11-01-2022,19:00,13.500,R,ugm-3 (FIDAS),,,,,,,,,,6.934,R,ugm-3 (Ref.eq)
11-01-2022,20:00,13.675,R,ugm-3 (FIDAS),,,,,,,,,,6.816,R,ugm-3 (Ref.eq)
11-01-2022,21:00,14.225,R,ugm-3 (FIDAS),,,,,,,,,,7.005,R,ugm-3 (Ref.eq)
11-01-2022,22:00,14.275,R,ugm-3 (FIDAS),,,,,,,,,,7.406,R,ugm-3 (Ref.eq)
11-01-2022,23:00,13.100,R,ugm-3 (FIDAS),,,,,,,,,,7.052,R,ugm-3 (Ref.eq)
11-01-2022,24:00,14.025,R,ugm-3 (FIDAS),,,,,,,,,,7.571,R,ugm-3 (Ref.eq)
12-01-2022,01:00,14.250,R,ugm-3 (FIDAS),,,,,,,,,,7.830,R,ugm-3 (Ref.eq)
12-01-2022,02:00,14.675,R,ugm-3 (FIDAS),,,,,,,,,,7.807,R,ugm-3 (Ref.eq)
12-01-2022,03:00,16.425,R,ugm-3 (FIDAS),,,,,,,,,,7.783,R,ugm-3 (Ref.eq)
12-01-2022,04:00,17.625,R,ugm-3 (FIDAS),,,,,,,,,,7.995,R,ugm-3 (Ref.eq)
12-01-2022,05:00,18.375,R,ugm-3 (FIDAS),,,,,,,,,,8.349,R,ugm-3 (Ref.eq)
12-01-2022,06:00,14.400,R,ugm-3 (FIDAS),,,,,,,,,,7.335,R,ugm-3 (Ref.eq)
12-01-2022,07:00,16.150,R,ugm-3 (FIDAS),,,,,,,,,,7.217,R,ugm-3 (Ref.eq)
12-01-2022,08:00,16.000,R,ugm-3 (FIDAS),,,,,,,,,,7.288,R,ugm-3 (Ref.eq)
12-01-2022,09:00,14.500,R,ugm-3 (FIDAS),,,,,,,,,,6.887,R,ugm-3 (Ref.eq)
12-01-2022,10:00,12.425,R,ugm-3 (FIDAS),,,,,,,,,,5.920,R,ugm-3 (Ref.eq)
12-01-2022,11:00,14.925,R,ugm-3 (FIDAS),,,,,,,,,,9.080,R,ugm-3 (Ref.eq)
12-01-2022,12:00,11.050,R,ugm-3 (FIDAS),,,,,,,,,,5.896,R,ugm-3 (Ref.eq)
12-01-2022,13:00,13.350,R,ugm-3 (FIDAS),,,,,,,,,,7.146,R,ugm-3 (Ref.eq)
12-01-2022,14:00,12.100,R,ugm-3 (FIDAS),,,,,,,,,,6.038,R,ugm-3 (Ref.eq)
12-01-2022,15:00,11.625,R,ugm-3 (FIDAS),,,,,,,,,,5.590,R,ugm-3 (Ref.eq)
12-01-2022,16:00,12.525,R,ugm-3 (FIDAS),,,,,,,,,,5.826,R,ugm-3 (Ref.eq)
12-01-2022,17:00,10.925,R,ugm-3 (FIDAS),,,,,,,,,,5.212,R,ugm-3 (Ref.eq)
12-01-2022,18:00,9.200,R,ugm-3 (FIDAS),,,,,,,,,,4.599,R,ugm-3 (Ref.eq)
12-01-2022,19:00,7.375,R,ugm-3 (FIDAS),,,,,,,,,,3.797,R,ugm-3 (Ref.eq)
12-01-2022,20:00,6.025,R,ugm-3 (FIDAS),,,,,,,,,,3.255,R,ugm-3 (Ref.eq)
12-01-2022,21:00,6.675,R,ugm-3 (FIDAS),,,,,,,,,,3.231,R,ugm-3 (Ref.eq)
12-01-2022,22:00,7.425,R,ugm-3 (FIDAS),,,,,,,,,,3.467,R,ugm-3 (Ref.eq)
12-01-2022,23:00,6.400,R,ugm-3 (FIDAS),,,,,,,,,,3.042,R,ugm-3 (Ref.eq)
12-01-2022,24:00,7.600,R,ugm-3 (FIDAS),,,,,,,,,,3.774,R,ugm-3 (Ref.eq)
13-01-2022,01:00,7.350,R,ugm-3 (FIDAS),,,,,,,,,,4.175,R,ugm-3 (Ref.eq)
13-01-2022,02:00,7.575,R,ugm-3 (FIDAS),,,,,,,,,,4.245,R,ugm-3 (Ref.eq)
13-01-2022,03:00,5.875,R,ugm-3 (FIDAS),,,,,,,,,,2.972,R,ugm-3 (Ref.eq)
13-01-2022,04:00,6.150,R,ugm-3 (FIDAS),,,,,,,,,,2.901,R,ugm-3 (Ref.eq)
13-01-2022,05:00,7.100,R,ugm-3 (FIDAS),,,,,,,,,,3.113,R,ugm-3 (Ref.eq)
13-01-2022,06:00,7.200,R,ugm-3 (FIDAS),,,,,,,,,,3.208,R,ugm-3 (Ref.eq)
13-01-2022,07:00,9.650,R,ugm-3 (FIDAS),,,,,,,,,,3.538,R,ugm-3 (Ref.eq)
13-01-2022,08:00,13.175,R,ugm-3 (FIDAS),,,,,,,,,,4.741,R,ugm-3 (Ref.eq)
13-01-2022,09:00,18.325,R,ugm-3 (FIDAS),,,,,,,,,,5.967,R,ugm-3 (Ref.eq)
13-01-2022,10:00,11.025,R,ugm-3 (FIDAS),,,,,,,,,,4.528,R,ugm-3 (Ref.eq)
13-01-2022,11:00,8.000,R,ugm-3 (FIDAS),,,,,,,,,,3.491,R,ugm-3 (Ref.eq)
13-01-2022,12:00,7.225,R,ugm-3 (FIDAS),,,,,,,,,,3.090,R,ugm-3 (Ref.eq)
13-01-2022,13:00,6.075,R,ugm-3 (FIDAS),,,,,,,,,,2.382,R,ugm-3 (Ref.eq)
13-01-2022,14:00,5.500,R,ugm-3 (FIDAS),,,,,,,,,,2.052,R,ugm-3 (Ref.eq)
13-01-2022,15:00,4.925,R,ugm-3 (FIDAS),,,,,,,,,,2.052,R,ugm-3 (Ref.eq)
13-01-2022,16:00,4.675,R,ugm-3 (FIDAS),,,,,,,,,,2.288,R,ugm-3 (Ref.eq)
13-01-2022,17:00,6.425,R,ugm-3 (FIDAS),,,,,,,,,,2.925,R,ugm-3 (Ref.eq)
13-01-2022,18:00,7.350,R,ugm-3 (FIDAS),,,,,,,,,,3.231,R,ugm-3 (Ref.eq)
13-01-2022,19:00,6.900,R,ugm-3 (FIDAS),,,,,,,,,,3.420,R,ugm-3 (Ref.eq)
13-01-2022,20:00,5.525,R,ugm-3 (FIDAS),,,,,,,,,,2.642,R,ugm-3 (Ref.eq)
13-01-2022,21:00,2.900,R,ugm-3 (FIDAS),,,,,,,,,,1.509,R,ugm-3 (Ref.eq)
13-01-2022,22:00,2.225,R,ugm-3 (FIDAS),,,,,,,,,,1.344,R,ugm-3 (Ref.eq)
13-01-2022,23:00,3.625,R,ugm-3 (FIDAS),,,,,,,,,,1.887,R,ugm-3 (Ref.eq)
13-01-2022,24:00,4.050,R,ugm-3 (FIDAS),,,,,,,,,,1.981,R,ugm-3 (Ref.eq)
14-01-2022,01:00,2.850,R,ugm-3 (FIDAS),,,,,,,,,,1.486,R,ugm-3 (Ref.eq)
14-01-2022,02:00,4.225,R,ugm-3 (FIDAS),,,,,,,,,,2.759,R,ugm-3 (Ref.eq)
14-01-2022,03:00,4.750,R,ugm-3 (FIDAS),,,,,,,,,,3.184,R,ugm-3 (Ref.eq)
14-01-2022,04:00,3.650,R,ugm-3 (FIDAS),,,,,,,,,,2.618,R,ugm-3 (Ref.eq)
14-01-2022,05:00,2.775,R,ugm-3 (FIDAS),,,,,,,,,,2.146,R,ugm-3 (Ref.eq)
14-01-2022,06:00,3.725,R,ugm-3 (FIDAS),,,,,,,,,,2.524,R,ugm-3 (Ref.eq)
14-01-2022,07:00,4.875,R,ugm-3 (FIDAS),,,,,,,,,,3.113,R,ugm-3 (Ref.eq)
14-01-2022,08:00,4.475,R,ugm-3 (FIDAS),,,,,,,,,,2.854,R,ugm-3 (Ref.eq)
14-01-2022,09:00,4.450,R,ugm-3 (FIDAS),,,,,,,,,,2.925,R,ugm-3 (Ref.eq)
14-01-2022,10:00,4.250,R,ugm-3 (FIDAS),,,,,,,,,,2.665,R,ugm-3 (Ref.eq)
14-01-2022,11:00,2.650,R,ugm-3 (FIDAS),,,,,,,,,,1.604,R,ugm-3 (Ref.eq)
14-01-2022,12:00,2.925,R,ugm-3 (FIDAS),,,,,,,,,,1.392,R,ugm-3 (Ref.eq)
14-01-2022,13:00,5.325,R,ugm-3 (FIDAS),,,,,,,,,,1.958,R,ugm-3 (Ref.eq)
14-01-2022,14:00,9.850,R,ugm-3 (FIDAS),,,,,,,,,,2.382,R,ugm-3 (Ref.eq)
14-01-2022,15:00,11.650,R,ugm-3 (FIDAS),,,,,,,,,,2.901,R,ugm-3 (Ref.eq)
14-01-2022,16:00,8.600,R,ugm-3 (FIDAS),,,,,,,,,,2.429,R,ugm-3 (Ref.eq)
14-01-2022,17:00,5.950,R,ugm-3 (FIDAS),,,,,,,,,,1.958,R,ugm-3 (Ref.eq)
14-01-2022,18:00,4.875,R,ugm-3 (FIDAS),,,,,,,,,,3.066,R,ugm-3 (Ref.eq)